Tracking 28790 objects as of 18-Apr-2024
HD Live streaming from Space Station
objects crossing your sky now

STARLINK-1257

Track STARLINK-1257 now!
10-day predictions
STARLINK-1257 is classified as:


NORAD ID: 45402
Int'l Code: 2020-019AU
Perigee: 473.6 km
Apogee: 483.9 km
Inclination: 53.0 °
Period: 94.0 minutes
Semi major axis: 6849 km
RCS: Unknown
Launch date: March 18, 2020
Source: United States (US)
Launch site: AIR FORCE EASTERN TEST RANGE (AFETR)
Your satellite tracking list
Your tracking list is empty




NASA's NSSDC Master Catalog

Two Line Element Set (TLE):
1 45402U 20019AU  24109.03714540  .00165081  00000-0  52605-2 0  9998
2 45402  53.0490 341.1174 0007533 176.0292 184.0769 15.31398638226073
Source of the keplerian elements: AFSPC